Starlink 31727

operational
NORAD ID: 59638 Int'l Des: 2024-082 Owner: SPXS Country: US Constellation: starlink
LEOCIRCULAR

About Starlink 31727

Description loading...

Live Position

Loading 3D Globe...

Upcoming Passes

Altitude History

Altitude vs Time

uPlot chart will show altitude changes over time

Two-Line Element Set

1 59638U 24082H 25304.00399171 .00007791 00000-0 29214-3 0 9996
2 59638 43.0005 152.5936 0002127 283.1278 76.9337 15.27601266 85025
Epoch: Oct 31, 2025 • Age: 19 hours

Current Status

Altitude 482.9 km
Velocity 7.63 km/s
Sub-Earth Point -5.20°S, 178.86°E
Launch Date May 3, 2024
Age 1.4 years
Type internet

Technical Details

Classification Payload
Mass 730.00 kg
Dry Mass 700.00 kg
Total Mass 730.00 kg
Length 0.30 m
Diameter 4.10 m
Span 29.00 m
Shape Box + pan
Manufacturer SPXS
Bus Type Starlink V2M
Phase Status In Orbit
Owner/State SPXS/US

Large Constellations

Loading constellations...